{"data":{"norad_id":54808,"epoch":"2026-05-25T02:20:09.191040Z","epoch_age_seconds":77287,"freshness":"FRESH","line1":"1 54808U 22175BC  26145.09732860  .00000246  00000+0  33549-4 0  9994","line2":"2 54808  53.2126  31.2823 0001520  81.5458 278.5707 15.08834267191870","mean_motion":15.08834267,"eccentricity":0.000152,"inclination_deg":53.2126,"raan_deg":31.2823,"arg_perigee_deg":81.5458,"mean_anomaly_deg":278.5707,"bstar":3.3549e-5,"rev_number":19187,"period_min":95.437917304406,"perigee_km":538.70939202437,"apogee_km":540.81243298977,"semimajor_km":6917.8979125071,"source":"CELESTRAK","updated_at":"2026-05-25T13:38:17.715641Z"}}